TimeMDT,TemperatureF,Dew PointF,Humidity,Sea Level PressureIn,VisibilityMPH,Wind Direction,Wind SpeedMPH,Gust SpeedMPH,PrecipitationIn,Events,Conditions,WindDirDegrees,DateUTC
12:53 AM,57.0,48.0,72,29.66,10.0,WNW,5.8,-,N/A,,Mostly Cloudy,290,2013-05-24 06:53:00
1:53 AM,57.9,48.9,72,29.64,10.0,WNW,10.4,-,N/A,,Mostly Cloudy,290,2013-05-24 07:53:00
2:53 AM,57.9,48.9,72,29.65,10.0,Calm,Calm,-,N/A,,Mostly Cloudy,0,2013-05-24 08:53:00
3:53 AM,55.9,48.9,77,29.66,10.0,South,6.9,-,N/A,,Scattered Clouds,180,2013-05-24 09:53:00
4:53 AM,57.0,48.9,74,29.73,10.0,WNW,5.8,-,N/A,,Mostly Cloudy,290,2013-05-24 10:53:00
5:23 AM,55.4,48.2,77,29.85,10.0,NW,9.2,-,N/A,,Overcast,310,2013-05-24 11:23:00
5:53 AM,54.0,48.0,80,29.77,10.0,NW,8.1,-,N/A,,Mostly Cloudy,310,2013-05-24 11:53:00
6:53 AM,55.0,48.0,77,29.84,10.0,North,4.6,-,N/A,,Scattered Clouds,10,2013-05-24 12:53:00
7:53 AM,57.9,42.1,56,29.87,10.0,NW,12.7,-,N/A,,Overcast,320,2013-05-24 13:53:00
8:53 AM,60.1,30.0,32,29.90,10.0,NNW,9.2,-,N/A,,Mostly Cloudy,340,2013-05-24 14:53:00
9:53 AM,63.0,30.0,29,29.90,10.0,NNW,11.5,16.1,N/A,,Clear,340,2013-05-24 15:53:00
10:53 AM,64.9,17.1,16,29.88,10.0,Calm,Calm,-,N/A,,Clear,0,2013-05-24 16:53:00
11:53 AM,66.9,12.0,12,29.88,10.0,Variable,3.5,-,N/A,,Clear,0,2013-05-24 17:53:00
12:53 PM,70.0,10.9,10,29.87,10.0,WNW,4.6,-,N/A,,Clear,300,2013-05-24 18:53:00
1:53 PM,70.0,10.9,10,29.86,10.0,Variable,3.5,-,N/A,,Clear,0,2013-05-24 19:53:00
2:53 PM,71.1,16.0,12,29.84,10.0,SE,6.9,-,N/A,,Clear,140,2013-05-24 20:53:00
3:53 PM,73.9,17.1,12,29.82,10.0,Variable,5.8,16.1,N/A,,Clear,0,2013-05-24 21:53:00
4:53 PM,73.9,16.0,11,29.79,10.0,Variable,5.8,-,N/A,,Clear,0,2013-05-24 22:53:00
5:53 PM,75.9,21.9,13,29.77,10.0,ESE,10.4,18.4,N/A,,Clear,120,2013-05-24 23:53:00
6:53 PM,75.9,17.1,11,29.76,10.0,SE,8.1,-,N/A,,Clear,140,2013-05-25 00:53:00
7:53 PM,75.0,14.0,10,29.75,10.0,SE,5.8,16.1,N/A,,Clear,130,2013-05-25 01:53:00
8:53 PM,72.0,17.1,12,29.75,10.0,South,8.1,-,N/A,,Clear,170,2013-05-25 02:53:00
9:53 PM,66.0,19.0,17,29.80,10.0,WNW,10.4,-,N/A,,Clear,290,2013-05-25 03:53:00
10:53 PM,62.1,21.0,21,29.82,10.0,Calm,Calm,-,N/A,,Clear,0,2013-05-25 04:53:00
11:53 PM,57.0,24.1,28,29.83,10.0,West,4.6,-,N/A,,Clear,260,2013-05-25 05:53:00